| time (UTC) | temp F | wind direction | speed MPH | gust MPH | rain 1hr in | rain 24hr in | rain mn in | humidity % | barometer mb |
| 20260509173146 | 48 | 191 | 5.0 | 10.0 | 0.00 | 0.00 | 0.00 | 64 | 908.9 |
| 20260509172145 | 48 | 197 | 5.0 | 10.0 | 0.00 | 0.00 | 0.00 | 62 | 908.9 |
| 20260509171145 | 48 | 191 | 4.0 | 7.0 | 0.00 | 0.00 | 0.00 | 59 | 908.9 |
| 20260509170145 | 48 | 193 | 4.0 | 7.0 | 0.00 | 0.00 | 0.00 | 58 | 908.9 |
| 20260509165144 | 48 | 191 | 5.0 | 9.0 | 0.00 | 0.00 | 0.00 | 57 | 908.9 |
| 20260509164144 | 48 | 210 | 5.0 | 9.0 | 0.00 | 0.00 | 0.00 | 59 | 908.8 |
| 20260509163143 | 48 | 193 | 5.0 | 10.0 | 0.00 | 0.00 | 0.00 | 55 | 908.8 |
| 20260509162143 | 48 | 215 | 5.0 | 10.0 | 0.00 | 0.00 | 0.00 | 49 | 908.9 |
| 20260509161143 | 48 | 193 | 5.0 | 11.0 | 0.00 | 0.00 | 0.00 | 45 | 908.9 |
| 20260509160142 | 48 | 197 | 5.0 | 11.0 | 0.00 | 0.00 | 0.00 | 45 | 909.0 |
| 20260509155142 | 48 | 148 | 6.0 | 10.0 | 0.00 | 0.00 | 0.00 | 45 | 908.8 |
| 20260509154141 | 48 | 186 | 5.0 | 12.0 | 0.00 | 0.00 | 0.00 | 47 | 908.8 |
| 20260509153141 | 48 | 243 | 5.0 | 9.0 | 0.00 | 0.00 | 0.00 | 48 | 908.9 |
| 20260509152141 | 48 | 201 | 5.0 | 10.0 | 0.00 | 0.00 | 0.00 | 48 | 908.8 |
| 20260509151140 | 48 | 194 | 6.0 | 13.0 | 0.00 | 0.00 | 0.00 | 49 | 908.8 |
| 20260509150139 | 48 | 191 | 6.0 | 10.0 | 0.00 | 0.00 | 0.00 | 47 | 908.9 |
| 20260509145139 | 48 | 191 | 7.0 | 13.0 | 0.00 | 0.00 | 0.00 | 47 | 908.9 |
| 20260509144138 | 48 | 190 | 7.0 | 12.0 | 0.00 | 0.00 | 0.00 | 42 | 908.9 |
| 20260509143138 | 48 | 194 | 7.0 | 14.0 | 0.00 | 0.00 | 0.00 | 40 | 908.7 |
| 20260509142137 | 48 | 194 | 7.0 | 12.0 | 0.00 | 0.00 | 0.00 | 42 | 908.8 |
| 20260509141137 | 48 | 163 | 7.0 | 14.0 | 0.00 | 0.00 | 0.00 | 44 | 908.7 |
| 20260509140138 | 48 | 201 | 7.0 | 12.0 | 0.00 | 0.00 | 0.00 | 44 | 908.6 |
| 20260509135136 | 48 | 193 | 7.0 | 12.0 | 0.00 | 0.00 | 0.00 | 43 | 908.5 |
| 20260509134135 | 48 | 198 | 7.0 | 13.0 | 0.00 | 0.00 | 0.00 | 43 | 908.5 |
| 20260509133135 | 48 | 187 | 7.0 | 12.0 | 0.00 | 0.00 | 0.00 | 46 | 908.5 |
| 20260509132135 | 49 | 204 | 7.0 | 11.0 | 0.00 | 0.00 | 0.00 | 43 | 908.5 |
| 20260509131134 | 49 | 193 | 6.0 | 13.0 | 0.00 | 0.00 | 0.00 | 44 | 908.5 |
| 20260509130134 | 49 | 203 | 7.0 | 11.0 | 0.00 | 0.00 | 0.00 | 43 | 908.4 |
| 20260509125133 | 49 | 207 | 7.0 | 12.0 | 0.00 | 0.00 | 0.00 | 42 | 908.5 |
| 20260509124133 | 49 | 201 | 7.0 | 13.0 | 0.00 | 0.00 | 0.00 | 41 | 908.5 |
| 20260509123133 | 49 | 195 | 7.0 | 12.0 | 0.00 | 0.00 | 0.00 | 41 | 908.5 |
| 20260509122132 | 49 | 200 | 6.0 | 14.0 | 0.00 | 0.00 | 0.00 | 42 | 908.4 |
| 20260509121131 | 49 | 198 | 7.0 | 11.0 | 0.00 | 0.00 | 0.00 | 40 | 908.4 |
| 20260509120132 | 49 | 188 | 7.0 | 11.0 | 0.00 | 0.00 | 0.00 | 40 | 908.4 |
| 20260509115131 | 49 | 200 | 7.0 | 13.0 | 0.00 | 0.00 | 0.00 | 39 | 908.4 |
| 20260509114130 | 49 | 197 | 7.0 | 11.0 | 0.00 | 0.00 | 0.00 | 39 | 908.4 |
| 20260509113130 | 49 | 188 | 7.0 | 12.0 | 0.00 | 0.00 | 0.00 | 40 | 908.3 |
| 20260509112130 | 50 | 204 | 7.0 | 11.0 | 0.00 | 0.00 | 0.00 | 34 | 908.2 |
| 20260509111129 | 50 | 204 | 7.0 | 11.0 | 0.00 | 0.00 | 0.00 | 29 | 908.3 |
| 20260509110128 | 49 | 195 | 6.0 | 10.0 | 0.00 | 0.00 | 0.00 | 31 | 908.1 |
| 20260509105128 | 50 | 186 | 6.0 | 10.0 | 0.00 | 0.00 | 0.00 | 31 | 908.2 |
| 20260509104127 | 49 | 191 | 6.0 | 10.0 | 0.00 | 0.00 | 0.00 | 31 | 908.1 |
| 20260509103127 | 50 | 212 | 6.0 | 11.0 | 0.00 | 0.00 | 0.00 | 28 | 908.0 |
| 20260509102127 | 49 | 204 | 7.0 | 14.0 | 0.00 | 0.00 | 0.00 | 32 | 908.0 |
| 20260509101126 | 49 | 221 | 6.0 | 12.0 | 0.00 | 0.00 | 0.00 | 37 | 907.8 |
| 20260509100126 | 50 | 231 | 6.0 | 9.0 | 0.00 | 0.00 | 0.00 | 39 | 907.7 |
| 20260509095126 | 50 | 190 | 5.0 | 10.0 | 0.00 | 0.00 | 0.00 | 40 | 907.6 |
| 20260509094125 | 50 | 204 | 6.0 | 11.0 | 0.00 | 0.00 | 0.00 | 39 | 907.7 |
| 20260509093124 | 50 | 191 | 5.0 | 9.0 | 0.00 | 0.00 | 0.00 | 36 | 907.6 |
| 20260509092123 | 51 | 197 | 6.0 | 11.0 | 0.00 | 0.00 | 0.00 | 30 | 907.5 |
| 20260509091123 | 51 | 221 | 6.0 | 9.0 | 0.00 | 0.00 | 0.00 | 32 | 907.6 |
| 20260509090123 | 52 | 211 | 5.0 | 10.0 | 0.00 | 0.00 | 0.00 | 35 | 907.5 |
| 20260509085122 | 52 | 211 | 4.0 | 7.0 | 0.00 | 0.00 | 0.00 | 35 | 907.4 |
| 20260509084122 | 53 | 198 | 4.0 | 8.0 | 0.00 | 0.00 | 0.00 | 37 | 907.3 |
| 20260509083121 | 54 | 184 | 3.0 | 7.0 | 0.00 | 0.00 | 0.00 | 36 | 907.2 |
| 20260509082121 | 54 | 205 | 3.0 | 6.0 | 0.00 | 0.00 | 0.00 | 33 | 907.2 |
| 20260509081120 | 55 | 242 | 3.0 | 6.0 | 0.00 | 0.00 | 0.00 | 32 | 907.1 |
| 20260509080120 | 56 | 210 | 2.0 | 6.0 | 0.00 | 0.00 | 0.00 | 28 | 907.0 |
| 20260509075119 | 56 | 198 | 4.0 | 9.0 | 0.00 | 0.00 | 0.00 | 28 | 906.9 |
| 20260509074119 | 57 | 200 | 4.0 | 8.0 | 0.00 | 0.00 | 0.00 | 27 | 906.9 |
| 20260509073119 | 57 | 201 | 3.0 | 8.0 | 0.00 | 0.00 | 0.00 | 29 | 906.6 |
| 20260509072118 | 57 | 197 | 4.0 | 9.0 | 0.00 | 0.00 | 0.00 | 29 | 906.5 |
| 20260509071117 | 57 | 204 | 3.0 | 9.0 | 0.00 | 0.00 | 0.00 | 31 | 906.5 |
| 20260509070117 | 57 | 203 | 4.0 | 9.0 | 0.00 | 0.00 | 0.00 | 34 | 906.3 |
| 20260509065117 | 57 | 153 | 3.0 | 5.0 | 0.00 | 0.00 | 0.00 | 35 | 906.1 |
| 20260509063116 | 57 | 229 | 3.0 | 7.0 | 0.00 | 0.00 | 0.00 | 32 | 905.9 |
| 20260509062116 | 57 | 197 | 3.0 | 7.0 | 0.00 | 0.00 | 0.00 | 35 | 905.8 |
| 20260509061115 | 57 | 174 | 2.0 | 7.0 | 0.00 | 0.00 | 0.00 | 35 | 905.8 |
| 20260509060114 | 58 | 150 | 3.0 | 9.0 | 0.00 | 0.00 | 0.00 | 34 | 905.7 |
| 20260509055115 | 59 | 110 | 2.0 | 4.0 | 0.00 | 0.00 | 0.00 | 34 | 905.8 |
| 20260509054114 | 60 | 208 | 3.0 | 8.0 | 0.00 | 0.00 | 0.00 | 34 | 905.8 |
| 20260509053113 | 59 | 132 | 2.0 | 6.0 | 0.00 | 0.00 | 0.00 | 37 | 905.5 |
| 20260509052113 | 59 | 242 | 3.0 | 7.0 | 0.00 | 0.00 | 0.00 | 40 | 905.5 |
| 20260509051112 | 60 | 153 | 2.0 | 7.0 | 0.00 | 0.00 | 0.00 | 39 | 905.5 |
| 20260509050111 | 61 | 104 | 2.0 | 7.0 | 0.00 | 0.00 | 0.00 | 36 | 905.5 |
| 20260509045112 | 60 | 219 | 2.0 | 7.0 | 0.00 | 0.00 | 0.00 | 40 | 905.5 |
| 20260509044111 | 61 | 124 | 3.0 | 6.0 | 0.00 | 0.00 | 0.00 | 39 | 905.3 |
| 20260509043110 | 62 | 100 | 2.0 | 8.0 | 0.00 | 0.00 | 0.00 | 37 | 905.4 |
| 20260509042110 | 61 | 203 | 2.0 | 5.0 | 0.00 | 0.00 | 0.00 | 39 | 905.3 |
| 20260509041110 | 61 | 200 | 3.0 | 8.0 | 0.00 | 0.00 | 0.00 | 37 | 905.3 |
| 20260509040109 | 62 | 207 | 2.0 | 7.0 | 0.00 | 0.00 | 0.00 | 39 | 905.1 |
| 20260509035109 | 62 | 136 | 2.0 | 4.0 | 0.00 | 0.00 | 0.00 | 35 | 905.2 |
| 20260509034107 | 64 | 118 | 2.0 | 5.0 | 0.00 | 0.00 | 0.00 | 36 | 905.2 |
| 20260509033107 | 64 | 138 | 1.0 | 5.0 | 0.00 | 0.00 | 0.00 | 38 | 905.1 |
| 20260509032106 | 63 | 98 | 1.0 | 5.0 | 0.00 | 0.00 | 0.00 | 40 | 905.0 |
| 20260509031106 | 62 | 291 | 1.0 | 4.0 | 0.00 | 0.00 | 0.00 | 39 | 905.0 |
| 20260509030105 | 61 | 288 | 2.0 | 4.0 | 0.00 | 0.00 | 0.00 | 40 | 904.9 |
| 20260509025105 | 62 | 260 | 2.0 | 6.0 | 0.00 | 0.00 | 0.00 | 38 | 904.7 |
| 20260509024105 | 62 | 176 | 1.0 | 3.0 | 0.00 | 0.00 | 0.00 | 41 | 904.7 |
| 20260509023104 | 63 | 269 | 1.0 | 3.0 | 0.00 | 0.00 | 0.00 | 40 | 904.7 |
| 20260509022104 | 62 | 24 | 1.0 | 4.0 | 0.00 | 0.00 | 0.00 | 43 | 904.7 |
| 20260509021103 | 62 | 288 | 1.0 | 5.0 | 0.00 | 0.00 | 0.00 | 41 | 904.7 |
| 20260509020104 | 61 | 253 | 0.0 | 2.0 | 0.00 | 0.00 | 0.00 | 48 | 904.6 |
| 20260509015102 | 60 | 14 | 2.0 | 5.0 | 0.00 | 0.00 | 0.00 | 41 | 904.4 |
| 20260509014102 | 60 | 291 | 1.0 | 4.0 | 0.00 | 0.00 | 0.00 | 46 | 904.3 |
| 20260509013101 | 59 | 37 | 1.0 | 3.0 | 0.00 | 0.00 | 0.00 | 47 | 904.3 |
| 20260509012101 | 59 | 302 | 1.0 | 2.0 | 0.00 | 0.00 | 0.00 | 45 | 904.2 |
| 20260509011101 | 59 | 105 | 1.0 | 4.0 | 0.00 | 0.00 | 0.00 | 44 | 904.0 |
| 20260509010100 | 59 | 232 | 1.0 | 4.0 | 0.00 | 0.00 | 0.00 | 43 | 903.9 |
| 20260509005100 | 59 | 318 | 1.0 | 4.0 | 0.00 | 0.00 | 0.00 | 43 | 903.8 |
| 20260509004059 | 59 | 107 | 2.0 | 5.0 | 0.00 | 0.00 | 0.00 | 42 | 903.6 |
| 20260509003059 | 58 | 260 | 1.0 | 3.0 | 0.00 | 0.00 | 0.00 | 45 | 903.2 |
| 20260509002058 | 58 | 249 | 1.0 | 3.0 | 0.00 | 0.00 | 0.00 | 42 | 903.0 |
| 20260509001058 | 58 | 83 | 1.0 | 4.0 | 0.00 | 0.00 | 0.00 | 46 | 902.9 |
| 20260509000057 | 58 | 338 | 1.0 | 4.0 | 0.00 | 0.00 | 0.00 | 42 | 902.7 |
| 20260508235057 | 58 | 158 | 1.0 | 3.0 | 0.00 | 0.00 | 0.00 | 44 | 902.5 |
| 20260508234056 | 57 | 101 | 2.0 | 7.0 | 0.00 | 0.00 | 0.00 | 44 | 902.3 |
| 20260508233056 | 57 | 201 | 2.0 | 8.0 | 0.00 | 0.00 | 0.00 | 44 | 902.1 |
| 20260508232055 | 57 | 94 | 2.0 | 6.0 | 0.00 | 0.00 | 0.00 | 43 | 902.1 |
| 20260508231055 | 56 | 218 | 1.0 | 3.0 | 0.00 | 0.00 | 0.00 | 43 | 902.0 |
| 20260508230055 | 55 | 297 | 0.0 | 3.0 | 0.00 | 0.00 | 0.00 | 44 | 901.7 |
| 20260508225054 | 54 | 195 | 1.0 | 3.0 | 0.00 | 0.00 | 0.00 | 43 | 901.7 |
| 20260508224054 | 54 | 315 | 1.0 | 3.0 | 0.00 | 0.00 | 0.00 | 43 | 901.4 |
| 20260508223053 | 53 | 128 | 1.0 | 3.0 | 0.00 | 0.00 | 0.00 | 42 | 901.4 |
| 20260508222053 | 52 | 315 | 0.0 | 1.0 | 0.00 | 0.00 | 0.00 | 37 | 901.2 |
| 20260508221053 | 50 | 136 | 0.0 | 3.0 | 0.00 | 0.00 | 0.00 | 33 | 901.0 |
| 20260508220052 | 49 | 308 | 1.0 | 2.0 | 0.00 | 0.00 | 0.00 | 27 | 900.9 |
| 20260508215051 | 48 | 332 | 1.0 | 2.0 | 0.00 | 0.00 | 0.00 | 29 | 900.7 |
| 20260508214051 | 48 | 288 | 2.0 | 3.0 | 0.00 | 0.00 | 0.00 | 25 | 900.5 |
| 20260508213050 | 48 | 271 | 3.0 | 5.0 | 0.00 | 0.00 | 0.00 | 26 | 900.5 |
| 20260508212050 | 47 | 326 | 2.0 | 5.0 | 0.00 | 0.00 | 0.00 | 25 | 900.3 |
| 20260508211050 | 47 | 7 | 2.0 | 6.0 | 0.00 | 0.00 | 0.00 | 26 | 900.2 |
| 20260508210049 | 47 | 312 | 2.0 | 5.0 | 0.00 | 0.00 | 0.00 | 25 | 900.1 |
| 20260508205049 | 47 | 336 | 3.0 | 6.0 | 0.00 | 0.00 | 0.00 | 26 | 899.7 |
| 20260508204048 | 47 | 278 | 5.0 | 9.0 | 0.00 | 0.00 | 0.00 | 26 | 899.5 |
| 20260508203048 | 47 | 305 | 4.0 | 8.0 | 0.00 | 0.00 | 0.00 | 21 | 899.3 |
| 20260508202047 | 47 | 259 | 5.0 | 10.0 | 0.00 | 0.00 | 0.00 | 18 | 899.1 |
| 20260508201047 | 47 | 283 | 6.0 | 11.0 | 0.00 | 0.00 | 0.00 | 17 | 898.9 |
| 20260508200046 | 47 | 273 | 7.0 | 11.0 | 0.00 | 0.00 | 0.00 | 17 | 898.7 |
| 20260508195047 | 47 | 242 | 7.0 | 13.0 | 0.00 | 0.00 | 0.00 | 16 | 898.6 |
| 20260508194046 | 47 | 280 | 7.0 | 15.0 | 0.00 | 0.00 | 0.00 | 14 | 898.2 |
| 20260508193045 | 47 | 281 | 10.0 | 19.0 | 0.00 | 0.00 | 0.00 | 12 | 898.1 |
| 20260508192045 | 48 | 280 | 9.0 | 17.0 | 0.00 | 0.00 | 0.00 | 10 | 897.8 |
| 20260508191044 | 48 | 264 | 11.0 | 23.0 | 0.00 | 0.00 | 0.00 | 8 | 897.5 |
| 20260508190044 | 48 | 264 | 13.0 | 25.0 | 0.00 | 0.00 | 0.00 | 7 | 897.3 |
| 20260508185043 | 48 | 274 | 13.0 | 26.0 | 0.00 | 0.00 | 0.00 | 7 | 896.8 |
| 20260508184043 | 48 | 233 | 14.0 | 24.0 | 0.00 | 0.00 | 0.00 | 8 | 896.8 |
| 20260508182042 | 49 | 246 | 11.0 | 23.0 | 0.00 | 0.00 | 0.00 | 6 | 896.3 |
| 20260508181041 | 50 | 266 | 12.0 | 23.0 | 0.00 | 0.00 | 0.00 | 5 | 896.2 |
| 20260508175040 | 49 | 287 | 17.0 | 36.0 | 0.00 | 0.00 | 0.00 | 5 | 895.7 |
| 20260508174040 | 50 | 277 | 19.0 | 45.0 | 0.00 | 0.00 | 0.00 | 4 | 895.2 |